RH
2 2 2 2 2 1 1 2 2 1 2 1 1 1 1 1 1 1 1 1 1 1 2 3 3 3 3 2 2 2 2 3 1 3 1 1 2 1 2 2 2 2 6 11 20 34 39 38 29 28 41 42 48 57 58 57 56 64 66 63 62 61 62 73 84 70 41 27 29 24 18 16 12 17 17 20 28 31 37 34 40 47 31 15 5 7 13 15
3 2 2 2 2 2 2 1 1 2 1 1 1 1 1 1 1 1 1 1 1 2 1 2 3 3 3 2 3 3 3 3 2 2 1 2 2 1 2 1 3 2 5 9 13 26 34 38 34 41 56 48 51 59 55 57 59 63 64 58 58 63 67 73 74 66 50 37 37 28 18 19 16 17 22 26 27 30 35 33 43 42 16 3 3 7 11 13
3 3 3 2 2 2 2 2 1 2 1 2 1 1 1 1 1 1 1 1 0 1 1 2 3 3 4 2 3 3 3 3 2 2 1 2 1 1 2 1 3 1 4 7 10 18 24 33 37 51 60 52 64 72 58 55 56 58 62 60 59 65 70 69 66 63 49 30 33 31 20 22 20 27 38 33 29 33 35 30 30 21 6 5 4 5 7 9
4 3 3 2 2 2 2 2 1 2 2 2 1 1 1 1 1 1 1 1 1 1 1 2 2 3 3 3 3 3 3 3 3 2 1 2 2 2 1 1 2 1 4 6 8 10 17 33 45 58 57 55 70 71 63 57 52 58 62 59 62 65 64 65 58 47 37 30 34 28 20 24 21 37 53 46 42 41 37 31 24 11 3 6 4 6 8 7
4 4 4 3 2 2 2 2 2 2 2 1 2 1 1 1 1 1 1 1 1 1 1 1 2 3 3 3 3 3 4 3 3 2 2 2 2 2 1 2 2 2 3 4 8 10 22 40 47 55 51 54 63 56 62 59 48 60 63 60 69 72 68 70 55 35 35 32 28 24 21 24 25 39 49 53 62 57 42 29 18 8 4 5 5 6 6 8
3 4 4 3 3 3 2 2 2 2 2 2 2 2 1 1 1 1 1 1 1 1 1 1 1 3 3 3 3 3 4 3 4 3 2 2 1 2 1 2 2 2 2 3 9 14 30 40 38 49 52 57 57 48 57 53 47 62 59 52 64 73 68 56 34 24 32 27 24 26 21 20 25 30 33 51 67 55 41 29 14 7 5 4 5 6 7 9
2 3 4 4 3 3 3 2 2 2 2 2 1 2 1 1 1 1 1 1 1 1 1 1 1 2 3 3 3 3 4 3 4 3 2 2 2 2 1 2 2 2 3 2 8 13 25 34 32 44 61 66 54 43 48 46 52 67 62 58 62 62 46 27 20 29 36 30 31 29 22 23 25 27 26 37 48 42 34 25 14 7 5 5 4 6 7 8
2 2 3 3 4 3 3 3 2 2 2 2 2 2 2 1 2 1 1 1 1 1 1 1 1 2 2 3 3 3 4 3 4 4 2 2 2 2 1 2 2 2 3 2 5 7 11 24 31 41 58 60 48 44 45 44 58 70 63 52 45 37 26 26 32 37 33 28 31 31 29 28 23 26 25 23 32 36 28 20 17 9 4 6 5 5 7 8
2 2 2 3 4 4 4 3 3 3 2 2 2 2 2 1 2 1 2 1 1 1 1 1 1 1 2 3 3 3 3 3 4 4 3 2 1 2 2 2 2 1 3 2 3 4 4 14 31 48 56 51 45 46 42 45 60 63 46 32 31 28 27 40 37 26 25 24 26 28 27 22 16 20 23 20 23 24 19 20 24 14 5 7 6 6 6 8
2 2 2 2 3 3 4 4 3 3 2 2 2 2 2 2 2 1 2 1 1 1 1 2 1 1 2 2 3 2 3 3 4 4 4 3 1 2 2 2 2 2 2 2 3 4 4 19 51 67 63 56 47 43 43 50 59 51 36 33 35 28 34 51 38 20 23 25 24 21 19 17 12 14 19 20 17 17 18 21 24 16 7 8 7 7 6 7
3 2 2 2 2 3 4 4 4 3 3 3 2 2 2 2 2 2 2 2 1 1 1 1 1 1 1 2 3 2 3 3 4 4 4 3 2 2 2 2 2 2 2 2 3 3 2 32 78 81 61 53 44 44 49 53 58 46 33 30 30 39 54 51 29 22 27 26 23 16 10 11 13 15 15 16 17 18 19 19 21 15 7 7 7 7 7 8
4 3 2 2 2 2 3 4 5 4 3 3 2 2 2 2 2 2 2 2 2 1 1 1 1 1 1 2 2 2 3 3 3 4 4 3 2 2 2 2 2 2 2 2 3 3 1 20 60 74 61 47 43 52 55 61 71 52 33 28 31 56 65 37 20 30 33 24 25 27 17 8 11 17 14 14 17 17 17 16 14 12 10 10 8 6 7 8
4 4 3 2 2 2 2 3 5 5 4 3 3 3 2 2 2 2 2 2 2 2 1 1 1 1 1 1 2 3 2 3 3 3 4 4 3 2 1 2 2 2 2 3 3 3 3 3 24 54 58 45 47 54 54 65 69 52 49 40 31 48 49 33 29 35 36 27 34 48 39 18 11 15 14 13 17 19 19 20 17 15 14 9 6 7 6 7
4 4 4 3 2 2 2 2 4 5 5 3 3 2 3 3 2 2 2 2 2 2 2 1 1 1 1 1 2 3 2 2 3 3 4 4 3 2 2 2 2 2 2 2 3 2 5 4 6 24 39 48 53 50 53 64 57 62 75 54 48 65 54 48 44 31 32 29 36 54 52 36 21 18 18 15 19 22 16 17 22 20 15 9 7 8 7 6
5 4 4 4 3 3 2 2 3 5 6 4 3 3 3 2 2 3 2 2 2 2 2 1 1 1 1 2 1 2 2 3 3 3 4 4 4 2 2 2 1 2 2 2 4 3 4 5 4 10 29 50 54 49 60 67 59 71 80 65 83 92 61 60 57 33 31 30 32 52 67 60 39 29 27 23 24 24 19 17 17 14 11 11 8 7 9 8
5 5 4 4 3 3 2 2 3 4 5 5 4 3 3 3 2 3 2 2 2 2 2 1 2 1 1 2 1 2 2 2 3 3 4 4 4 3 2 2 2 2 3 2 2 3 3 4 7 9 21 42 54 61 66 66 68 75 78 79 95 90 69 74 64 41 43 45 37 44 62 60 45 40 32 29 29 26 32 32 25 16 9 9 9 8 12 10
6 5 5 4 4 3 3 2 2 3 4 5 5 4 3 3 2 2 3 3 2 2 2 2 2 1 2 2 1 2 2 2 3 3 4 4 4 4 2 2 2 2 2 3 2 3 3 3 8 7 13 34 55 71 68 65 76 79 81 89 90 86 88 88 69 47 43 50 54 59 69 60 46 44 31 27 33 33 43 47 41 32 18 13 15 14 15 14
7 6 5 5 4 3 3 3 3 3 4 5 5 5 3 3 3 3 3 3 3 2 2 2 2 2 2 1 1 1 2 2 3 3 3 4 4 3 3 2 2 3 1 3 2 3 3 2 7 5 9 28 47 68 73 69 76 78 82 89 89 88 92 93 84 65 44 42 56 65 77 68 48 48 39 29 31 32 37 42 45 42 28 20 19 19 20 18
8 7 6 5 5 4 3 3 3 3 4 5 5 5 4 3 3 2 2 3 3 2 2 2 2 2 2 1 2 1 1 2 2 4 3 4 5 3 4 2 2 3 2 3 2 3 4 2 5 4 12 25 34 60 74 68 70 76 80 77 77 81 82 89 94 83 56 46 61 67 70 61 44 51 51 35 31 28 29 37 45 47 40 31 21 17 20 22
9 8 7 6 5 5 4 3 3 4 4 4 5 6 5 4 4 3 3 3 3 3 2 2 2 2 2 1 2 1 1 2 2 3 3 3 4 3 4 3 2 3 2 3 2 3 3 3 4 3 13 21 27 55 67 59 62 67 70 67 68 75 74 79 86 81 62 54 78 89 75 56 45 59 62 48 41 34 34 40 41 47 49 39 28 21 20 22
10 9 8 7 6 6 4 4 3 3 4 5 5 6 5 4 4 3 3 3 3 3 2 2 2 2 2 2 2 2 1 2 2 3 3 4 4 4 4 3 3 3 2 2 2 3 2 3 4 2 14 22 29 59 66 55 60 57 54 59 65 68 70 76 79 75 63 55 76 85 72 63 53 58 63 56 50 39 38 43 41 47 51 44 38 28 20 19
11 11 9 7 7 6 5 5 3 3 5 5 5 6 6 5 4 4 4 4 3 3 3 2 2 2 2 2 2 2 1 2 2 3 3 3 4 4 3 3 3 2 3 3 2 3 2 3 4 2 16 31 38 59 65 53 55 51 44 48 58 62 63 71 73 72 64 57 72 73 62 69 65 58 57 54 55 46 38 47 54 53 48 44 41 29 17 15
12 12 11 9 8 7 7 5 4 4 4 6 7 6 6 5 5 4 4 4 3 3 3 2 3 2 2 2 2 1 1 2 2 3 4 3 4 4 3 3 3 3 2 3 2 3 3 2 5 5 17 39 45 45 51 51 48 47 43 40 49 55 55 60 64 70 70 62 71 71 62 68 69 64 61 58 61 50 34 42 57 54 41 38 41 33 20 14
13 13 13 11 9 8 7 6 4 4 4 7 8 7 7 5 5 5 4 5 4 4 4 3 3 2 2 2 2 2 1 2 2 3 3 3 4 4 4 3 3 3 2 3 3 2 4 2 6 18 21 32 46 38 39 52 52 47 45 43 47 50 52 59 63 71 78 70 66 74 78 71 58 62 73 74 71 61 47 41 43 46 43 39 41 40 27 15
15 15 14 13 11 9 8 7 5 4 4 6 9 10 8 6 5 5 4 4 4 4 4 3 3 2 3 2 1 2 2 2 2 2 3 4 4 3 4 4 3 4 2 3 3 1 7 3 2 24 27 24 42 44 40 49 52 44 38 39 43 44 46 53 60 68 73 70 66 74 84 71 55 62 73 75 73 71 68 59 46 43 46 41 35 36 34 21
17 16 16 14 13 10 8 8 6 5 4 5 10 11 9 6 5 5 5 5 4 5 4 3 4 2 2 2 2 2 1 2 1 2 3 3 4 4 4 4 3 4 3 3 4 4 23 25 4 10 26 32 42 46 44 43 44 42 34 35 39 37 39 41 45 51 54 62 70 74 79 73 63 63 67 72 77 78 80 77 67 55 50 44 32 27 30 24
20 17 17 16 14 11 9 8 7 6 4 5 9 12 11 7 4 5 6 4 4 6 4 4 4 3 4 2 2 2 1 2 1 2 4 3 4 4 4 5 3 4 3 4 6 6 32 50 20 -2 19 45 46 43 44 32 29 40 38 37 38 33 36 35 34 42 50 61 70 72 75 74 68 65 69 78 82 82 82 80 74 66 61 51 38 30 26 22
22 19 18 19 16 12 10 8 8 7 4 6 9 13 13 7 5 6 5 7 11 9 5 5 4 3 5 3 2 2 1 2 2 2 3 3 5 3 4 5 3 5 3 5 12 8 18 42 31 4 18 52 48 36 40 24 21 42 45 43 42 38 41 37 34 40 48 58 63 67 72 73 75 74 73 75 73 70 72 77 78 75 68 53 42 38 30 20
26 21 20 22 19 14 11 9 8 7 5 6 10 14 14 8 6 5 4 11 19 17 9 8 7 4 5 3 2 2 2 2 2 3 3 3 4 4 4 4 3 5 3 4 14 17 13 26 39 26 25 53 50 36 41 28 24 42 48 52 49 42 44 43 42 43 44 54 59 64 71 71 77 81 75 74 73 68 68 76 81 76 64 51 47 48 39 25
31 25 21 25 23 16 12 9 8 7 5 7 11 15 15 10 6 5 7 8 19 32 25 13 10 7 5 4 3 2 2 2 2 3 4 4 4 4 4 5 4 5 8 10 14 24 24 19 34 37 27 39 40 32 35 26 26 42 48 53 47 39 46 47 47 49 51 60 63 66 75 75 78 82 78 76 74 71 70 68 67 69 65 56 55 55 43 31
37 29 23 27 26 17 13 10 8 7 7 8 13 16 14 11 7 4 9 8 18 39 36 23 19 12 5 5 5 4 2 2 4 3 3 4 4 5 4 5 5 5 14 20 14 22 34 23 19 20 15 24 28 28 37 30 32 47 53 58 51 45 55 54 50 54 59 66 70 72 74 71 73 76 76 77 75 76 74 64 57 64 71 66 60 55 45 40
44 35 26 29 28 19 13 10 9 7 8 9 14 16 13 12 7 4 13 19 26 38 36 31 27 14 8 7 7 7 3 3 5 3 3 4 4 4 4 4 5 5 8 14 13 19 34 34 23 11 6 21 32 34 45 44 41 49 60 70 64 53 58 60 60 64 65 65 66 67 66 64 64 65 71 77 78 82 81 72 62 54 56 58 53 48 42 42
51 42 31 31 30 21 12 10 10 7 8 11 14 16 14 12 8 5 13 23 37 45 42 41 31 15 13 10 7 10 6 6 8 4 2 3 4 4 4 5 4 5 5 8 18 26 35 45 42 23 9 20 39 45 46 49 50 49 55 69 68 58 58 62 66 66 64 63 60 59 60 60 59 59 70 73 68 75 79 77 75 63 53 49 45 45 42 37
56 50 38 34 32 22 13 11 10 8 9 12 16 16 14 12 9 7 12 27 53 58 47 52 47 29 20 11 10 11 6 9 9 4 4 3 4 5 4 5 3 4 11 17 23 30 41 53 45 27 21 24 36 48 49 50 54 45 42 57 62 59 62 66 66 62 59 59 58 57 55 56 57 57 64 66 60 62 66 70 87 92 69 41 31 39 45 43
59 57 45 40 36 23 13 12 10 9 9 12 18 17 13 13 8 7 13 29 61 67 49 55 60 48 33 16 14 12 7 21 20 4 4 5 3 5 3 5 5 3 14 25 30 35 47 55 40 26 35 34 27 41 54 55 55 45 39 51 53 50 58 63 62 60 57 56 55 55 53 53 59 60 61 62 57 56 56 59 81 92 61 28 23 28 36 45
60 64 53 48 43 25 15 15 11 10 11 13 19 16 13 14 6 11 26 33 55 69 57 56 59 56 47 28 22 20 15 36 42 17 6 5 3 6 4 4 6 4 11 26 36 40 48 55 42 27 35 34 20 35 56 52 49 50 45 49 50 47 52 54 55 57 56 56 57 57 59 59 60 62 62 61 57 55 54 52 62 67 47 28 25 21 28 42
59 69 62 56 50 29 16 17 14 13 13 13 18 15 14 14 5 14 41 50 59 71 65 60 55 54 55 40 33 36 31 41 52 38 23 10 2 6 6 3 7 4 8 28 43 42 43 50 47 33 33 31 18 28 51 48 43 51 47 46 50 49 49 49 51 54 55 56 55 54 57 57 56 59 62 67 64 56 55 52 46 45 39 28 19 12 17 31
58 72 71 64 56 33 19 21 18 16 16 13 16 16 14 15 7 10 39 64 71 69 65 65 57 49 53 49 41 44 43 42 48 48 40 21 5 6 6 4 7 5 6 28 46 45 40 43 46 44 42 42 30 28 47 51 45 49 47 45 49 47 45 47 47 51 58 60 56 54 55 54 55 60 62 66 66 64 72 71 49 34 31 22 15 13 11 22
57 74 76 68 59 38 22 22 22 19 17 13 13 17 15 13 9 10 39 76 83 70 68 72 64 51 47 48 46 47 47 43 43 45 41 29 15 10 8 5 7 7 10 28 44 48 44 40 44 51 51 52 46 35 42 51 48 49 48 44 45 44 43 49 48 49 58 63 61 62 61 57 58 60 60 61 64 68 76 73 52 38 36 26 15 14 16 28
56 76 79 68 60 45 26 22 25 21 16 12 13 17 17 12 9 15 42 76 86 77 72 72 67 58 50 45 45 47 48 45 43 42 40 34 26 19 16 13 11 12 16 30 46 51 48 42 44 54 54 53 53 45 42 47 47 48 50 46 46 46 46 50 54 54 56 60 61 60 57 56 57 57 60 63 63 63 63 63 57 44 38 30 16 11 15 24
56 80 82 66 57 49 32 23 25 22 16 15 15 16 18 13 11 24 52 80 89 80 71 71 75 74 62 48 40 42 46 45 43 43 44 42 36 32 30 25 23 25 25 33 48 52 49 45 46 53 58 53 52 51 48 48 47 46 50 51 48 45 43 47 54 57 57 58 61 59 53 54 57 57 60 62 60 63 65 66 64 48 34 28 18 12 12 17
58 83 85 65 55 50 35 24 24 24 19 17 16 17 19 15 11 24 58 88 93 82 74 76 83 84 71 54 43 41 41 42 44 44 46 47 42 41 43 36 33 39 36 35 47 51 45 45 47 52 59 58 52 50 50 50 48 45 49 55 52 45 45 48 51 54 59 62 62 57 52 54 58 56 56 58 57 59 62 60 61 57 43 30 21 18 22 28
59 81 84 64 51 52 40 25 24 24 20 18 20 20 19 18 15 19 50 88 96 86 80 75 71 72 69 59 50 43 37 39 46 46 44 46 44 46 51 46 42 46 45 42 48 51 43 42 48 51 56 60 54 50 52 52 50 46 48 55 54 48 50 51 49 51 57 61 58 56 56 57 58 57 57 59 56 56 60 56 55 56 43 29 25 24 30 43
58 78 87 62 41 51 46 28 26 25 21 21 20 21 21 19 18 18 38 77 92 87 86 76 63 63 66 61 52 45 39 38 44 45 42 43 45 47 50 51 49 47 45 44 47 48 44 43 48 50 53 58 55 52 55 54 52 48 45 50 52 51 52 50 47 50 55 60 60 61 65 62 59 61 62 61 58 57 59 55 52 52 42 33 31 25 25 35
55 73 91 64 34 48 50 32 30 28 24 26 22 25 25 17 23 28 32 54 76 86 90 81 65 58 63 63 50 44 46 42 41 43 41 41 44 44 46 49 50 46 42 43 45 46 45 44 46 47 50 56 56 57 59 54 52 49 43 42 47 49 51 50 49 52 55 60 61 63 70 69 64 65 67 67 64 60 59 59 59 56 44 34 32 27 22 24
55 68 89 64 27 42 53 36 34 31 26 28 25 25 25 26 45 47 25 28 55 73 81 80 67 51 53 62 52 44 51 47 42 46 44 40 40 42 45 48 50 49 42 41 46 46 45 45 47 46 46 51 56 58 57 52 50 50 46 43 44 46 48 48 51 55 56 60 60 59 64 66 63 64 65 67 67 65 67 66 61 57 51 42 35 30 27 26
57 62 82 67 28 36 52 40 36 36 27 27 28 26 28 45 74 68 25 11 35 56 66 78 77 60 58 71 61 49 54 50 45 51 48 41 39 39 44 46 49 51 46 45 50 49 46 45 46 48 46 48 54 55 55 54 50 47 48 47 47 49 51 50 50 51 54 59 61 60 61 60 59 59 60 63 67 71 79 75 58 50 51 46 38 33 31 31
58 56 74 73 40 36 50 44 40 42 34 34 40 41 41 54 78 84 57 33 34 48 60 78 88 75 72 81 67 52 55 50 48 57 53 44 42 43 45 45 46 48 48 52 56 52 50 49 48 50 49 47 51 52 55 61 58 53 53 53 51 50 52 53 53 51 51 54 58 61 62 62 62 63 65 70 74 77 84 77 56 46 46 43 38 35 32 29
58 54 66 74 52 40 52 50 41 40 37 36 42 47 52 55 61 71 73 63 50 44 51 73 85 73 72 83 71 58 60 52 50 64 62 48 46 51 53 50 48 49 48 55 63 61 56 54 51 49 47 47 50 49 52 61 61 56 57 59 57 52 49 50 52 51 50 51 53 56 57 59 63 64 66 71 75 78 80 70 56 55 55 47 41 38 34 29
59 54 60 75 61 43 51 54 45 45 47 41 39 44 54 64 69 68 68 72 68 53 46 61 70 58 62 80 76 65 64 55 51 62 63 54 54 59 61 57 55 57 55 54 62 64 56 53 55 56 54 55 54 50 52 59 59 55 57 60 60 56 50 47 50 52 51 50 52 53 55 58 60 61 63 67 68 71 73 65 59 62 60 50 44 42 38 32
62 57 56 74 71 47 44 53 51 53 55 46 39 42 49 61 78 86 83 80 74 60 52 62 65 52 56 79 85 76 68 59 57 58 54 57 65 66 68 68 65 66 65 59 59 63 56 47 49 58 61 58 54 52 52 53 52 51 51 52 54 53 50 48 52 54 53 51 51 53 58 62 66 68 67 66 65 63 60 56 55 56 54 50 47 42 35 29
64 62 55 68 78 60 43 45 47 49 54 53 47 46 50 56 69 88 96 89 76 65 65 72 65 48 53 75 84 77 63 51 52 56 54 61 72 74 76 75 69 70 74 70 65 67 64 56 50 52 59 61 58 57 57 59 58 53 48 48 48 49 52 55 56 56 56 57 57 60 65 67 72 77 74 71 72 66 56 53 53 52 50 47 42 35 29 24
Wind_Speed
28 29 29 29 28 27 25 23 22 20 19 17 16 15 14 14 13 12 10 10 10 7 5 3 1 2 4 6 7 7 8 7 6 5 5 5 7 11 13 13 13 14 17 19 21 21 21 18 15 15 14 13 14 19 20 16 19 25 25 11 5 6 4 6 2 2 1 2 3 3 2 5 4 5 6 7 7 7 8 8 8 8 7 7 10 12 12 12
27 29 30 30 30 29 27 26 24 23 21 19 18 16 15 15 14 13 11 12 11 9 7 4 3 1 3 5 6 7 8 8 7 5 4 5 6 10 13 14 14 14 17 19 21 22 21 20 17 15 12 13 13 15 16 14 17 19 22 12 2 4 5 4 2 5 2 3 2 3 3 4 4 4 5 6 6 7 7 7 9 8 7 8 10 11 10 11
27 28 30 31 31 31 30 28 27 25 24 22 20 18 17 16 15 14 13 12 12 11 9 6 5 3 1 3 5 6 7 7 7 5 4 5 6 9 12 14 15 15 17 18 20 22 22 22 20 16 10 12 11 7 10 17 18 12 12 6 4 4 2 4 7 6 2 4 3 4 4 4 5 5 5 6 6 6 6 7 8 7 6 8 9 10 9 10
27 28 29 31 32 32 32 31 29 28 26 24 23 21 19 18 17 16 14 13 13 12 11 8 7 5 3 2 3 5 6 7 8 6 4 4 5 9 11 14 16 16 17 17 18 19 21 20 18 15 9 14 9 5 11 11 11 6 6 9 9 3 2 3 6 7 3 4 3 3 4 5 8 7 6 5 6 6 6 6 6 6 6 7 7 8 9 9
28 28 28 30 31 33 33 33 32 30 29 27 26 23 21 20 18 17 16 15 14 13 12 11 9 7 6 3 3 4 5 5 7 6 4 4 5 7 11 15 17 18 18 17 16 18 20 17 17 14 7 19 12 8 9 5 6 4 7 16 10 2 5 4 5 7 3 3 3 3 5 6 8 6 4 4 5 6 6 6 5 4 5 6 6 7 7 8
29 29 29 30 30 32 34 34 34 32 31 30 28 26 24 23 21 19 18 17 15 14 13 13 11 9 8 5 4 4 4 4 5 6 4 4 5 7 10 15 17 19 18 18 18 18 19 16 17 21 16 20 11 5 4 8 8 3 15 13 8 3 6 6 5 5 3 4 3 3 4 5 8 6 4 5 4 6 6 7 6 4 4 5 5 5 5 6
31 30 30 30 30 31 32 34 35 35 33 32 31 29 27 25 24 21 19 18 17 16 15 14 13 11 10 8 6 5 4 3 4 5 4 3 5 7 10 14 17 19 19 19 19 18 19 18 17 26 26 14 3 6 4 5 4 4 10 8 6 4 6 5 5 5 4 4 2 2 3 4 7 7 4 3 4 6 6 7 6 5 5 4 4 4 4 4
31 32 31 31 31 31 32 33 35 36 35 34 33 32 30 28 26 24 22 20 19 18 16 15 15 13 12 10 8 7 6 4 3 4 4 3 4 7 10 14 18 18 19 19 19 19 19 21 17 24 25 8 4 5 11 8 1 5 7 8 6 3 4 4 6 5 3 3 1 2 2 3 4 4 3 3 4 6 6 6 5 4 5 4 3 2 2 3
29 31 32 32 31 31 32 33 34 36 37 36 35 34 32 30 29 27 24 22 21 20 18 17 16 15 14 12 10 9 8 6 3 3 4 3 4 7 10 13 17 18 20 20 19 18 18 19 15 18 21 8 7 9 15 10 7 14 9 6 4 3 4 5 5 3 2 2 0 2 1 3 3 2 2 3 5 6 6 7 6 4 5 4 3 1 1 1
25 29 32 33 33 32 32 32 34 35 37 38 37 36 35 32 31 30 27 25 23 22 20 19 17 16 15 14 12 10 8 6 5 3 3 2 3 6 9 12 17 19 19 19 19 18 17 18 14 11 15 5 7 11 6 8 12 18 10 5 4 3 5 7 5 3 2 2 1 1 2 3 2 1 1 2 5 6 6 7 6 5 5 4 3 2 1 0
21 25 30 32 34 34 33 33 33 34 36 38 38 38 37 35 33 32 30 27 25 24 22 21 19 17 17 16 14 11 9 7 6 4 3 1 3 6 8 11 16 18 19 19 20 19 17 19 17 5 6 8 8 9 6 7 11 11 10 7 4 5 6 5 3 3 2 1 1 0 2 3 1 0 0 1 3 6 6 6 6 5 5 4 3 2 1 0
19 21 25 30 33 34 35 34 34 34 35 36 38 38 38 37 35 34 32 30 28 26 25 23 21 19 18 18 15 13 12 9 8 6 4 2 2 5 7 11 15 17 20 19 19 18 14 17 21 14 9 13 12 10 8 7 8 9 10 7 5 8 7 4 2 2 1 1 2 2 2 3 1 2 1 3 3 4 4 5 5 5 5 4 4 3 2 1
21 20 21 26 31 33 35 35 35 34 34 35 37 38 39 39 37 35 34 32 30 28 27 25 23 21 19 19 17 16 15 11 10 8 5 3 1 5 7 10 14 17 20 20 20 17 11 12 19 24 24 17 11 10 8 8 11 10 9 8 6 7 6 2 3 3 1 1 3 3 2 1 2 4 3 4 3 1 4 4 3 5 5 5 5 3 3 3
23 22 21 22 27 32 34 35 36 36 35 34 35 37 39 40 39 37 35 33 32 30 29 27 25 23 21 20 19 19 17 13 12 10 7 5 3 5 7 9 13 16 19 18 19 17 13 13 11 18 28 25 12 13 11 13 14 10 10 10 7 5 4 2 3 3 2 2 3 3 4 2 2 5 5 6 6 3 2 4 3 6 5 4 5 4 4 3
24 23 22 21 23 28 33 35 36 37 36 35 34 36 38 40 40 38 37 34 33 33 31 29 26 25 23 21 22 22 19 16 14 12 10 7 5 6 7 9 11 15 18 17 17 19 18 14 8 13 26 27 12 16 14 13 11 12 13 10 8 8 6 2 4 4 3 3 2 4 5 4 3 4 6 8 9 6 2 2 1 5 4 4 4 4 4 4
25 24 24 23 22 24 30 34 36 37 37 36 35 34 36 39 40 39 38 36 35 34 33 30 28 27 25 22 22 24 21 19 17 14 12 9 7 8 8 10 12 14 18 18 17 19 19 16 13 17 22 21 16 14 16 14 9 13 12 8 9 11 8 5 5 6 4 3 3 4 6 5 4 4 5 8 9 8 3 2 2 3 3 3 3 2 3 4
26 25 25 24 23 23 26 32 36 37 38 37 36 34 35 37 40 41 39 37 36 36 34 32 30 29 26 25 26 26 23 21 19 16 14 12 10 9 9 11 13 15 17 17 16 18 20 18 18 19 19 19 23 23 18 16 11 14 11 9 11 11 8 6 6 7 5 4 4 4 5 5 4 5 6 6 9 9 4 2 2 2 3 3 2 2 4 4
26 26 25 25 24 23 24 29 34 37 38 38 37 35 35 36 38 41 40 38 37 36 36 34 32 31 30 30 29 27 25 24 21 18 16 14 12 11 10 12 13 15 17 18 17 19 20 19 18 19 19 20 24 24 16 13 12 14 8 9 10 10 10 8 8 8 6 6 7 6 6 7 6 7 8 7 8 10 8 5 3 2 2 2 2 3 4 4
27 26 26 25 25 23 23 26 31 35 37 38 37 35 36 36 37 40 41 39 37 37 38 36 34 34 31 30 29 27 27 26 23 21 18 16 15 14 13 13 15 17 17 20 21 22 23 20 17 18 19 20 22 22 13 9 11 10 5 10 11 7 11 11 10 10 7 7 8 7 9 11 9 8 8 8 9 9 9 9 6 4 4 3 1 2 4 4
29 27 26 25 25 24 23 24 28 33 37 38 37 36 36 37 37 39 41 39 38 39 40 37 36 35 32 31 31 31 29 27 26 24 21 19 17 16 15 15 16 18 18 20 22 24 25 21 17 15 18 20 19 21 18 13 13 8 3 12 13 9 11 12 10 11 9 8 8 8 10 11 8 8 8 8 10 10 9 10 7 5 4 4 3 1 2 3
29 28 27 26 25 25 24 23 26 31 35 37 37 36 36 37 38 39 38 38 40 40 40 39 38 37 36 36 35 33 30 29 29 27 24 21 20 19 17 16 17 17 18 20 23 25 24 21 17 14 17 19 17 21 18 15 14 10 7 11 13 13 13 12 11 12 11 8 9 11 11 11 9 9 10 9 10 11 11 10 9 8 6 4 5 3 1 1
30 29 28 26 25 25 24 23 25 28 34 37 37 37 37 36 38 39 36 38 41 40 40 40 39 38 38 36 35 33 31 31 31 28 26 24 22 21 19 18 17 17 19 21 24 24 23 20 17 16 17 17 18 22 18 11 10 13 14 13 13 14 12 10 13 15 11 5 7 12 13 12 13 12 12 12 10 11 12 12 11 10 8 6 7 5 3 3
30 29 28 27 26 25 24 24 24 26 32 36 37 37 37 36 38 39 37 37 40 41 41 40 39 40 39 37 37 33 31 33 33 30 29 26 24 23 21 20 18 19 21 21 22 21 19 19 17 18 18 17 17 20 26 23 19 24 23 14 12 15 13 15 18 17 11 7 8 14 15 12 14 14 14 14 13 12 14 14 13 12 11 10 10 8 6 5
31 30 29 27 27 25 25 24 23 24 29 34 37 36 36 36 37 39 38 37 38 40 40 40 40 41 39 39 37 33 32 35 35 33 31 28 26 25 23 22 21 22 22 20 20 18 17 19 19 18 19 21 19 18 21 28 24 30 30 18 12 12 12 16 19 15 11 10 9 14 20 17 15 14 15 15 14 14 15 15 16 14 13 13 11 11 9 7
31 30 30 28 27 26 26 24 22 23 28 33 36 36 36 35 35 38 37 37 37 37 38 39 40 40 39 39 37 35 36 36 36 35 33 30 29 27 25 25 24 23 23 21 20 19 17 20 22 22 21 23 23 18 20 21 20 22 23 25 17 11 10 15 16 12 12 15 13 15 19 20 17 15 17 18 17 18 17 15 16 16 15 15 13 12 12 10
31 30 31 29 27 27 26 24 23 24 27 31 34 36 35 34 35 37 36 35 34 34 38 39 38 38 39 39 37 37 38 38 37 36 34 33 32 29 27 27 25 24 24 22 22 22 18 19 22 24 23 22 24 23 24 24 22 17 14 22 25 16 13 16 17 17 19 20 18 16 16 21 25 20 19 21 21 20 19 17 16 16 16 16 15 14 14 13
32 31 31 30 27 27 26 24 23 25 27 29 32 34 33 33 34 35 34 33 31 33 37 37 36 36 36 38 39 39 39 38 38 38 37 36 34 31 30 29 27 27 26 25 25 24 21 22 24 24 24 20 23 26 26 26 22 15 13 15 24 27 18 18 19 20 20 17 17 16 15 21 26 22 19 22 23 23 22 20 18 18 17 16 16 16 16 16
32 31 30 30 29 26 26 25 23 25 26 26 30 33 32 32 32 33 33 29 29 34 36 34 34 34 36 41 42 39 38 38 38 39 38 36 35 33 32 31 29 28 27 27 26 24 24 25 23 22 24 22 27 27 23 24 20 17 19 17 20 28 21 20 19 17 18 18 19 19 18 20 22 22 21 21 23 24 23 19 18 18 18 18 19 18 17 18
32 32 30 30 29 26 25 26 24 25 24 25 29 32 32 32 31 32 32 29 29 32 34 33 31 31 36 42 41 38 39 38 38 39 38 37 37 36 34 32 31 29 29 28 27 24 23 23 18 22 25 25 29 27 22 24 20 15 20 17 15 19 18 23 26 19 20 22 21 19 19 21 23 24 24 23 21 20 19 17 17 19 21 21 21 19 18 18
33 32 30 29 30 26 25 26 26 24 23 25 28 30 31 32 31 31 31 32 27 26 31 32 30 31 35 36 35 37 40 39 40 41 40 39 39 38 36 33 32 31 29 27 27 24 22 24 24 27 28 28 30 27 22 23 20 12 18 17 14 16 19 24 29 22 20 23 22 18 18 20 23 23 22 21 19 16 17 18 20 21 22 22 20 19 20 20
33 33 30 29 30 26 25 27 26 23 23 25 28 29 31 31 31 31 31 30 25 25 31 29 30 35 35 31 30 35 40 40 41 43 43 42 41 40 39 38 37 35 32 28 28 25 20 23 26 26 27 27 26 20 15 15 20 19 21 18 18 20 19 18 23 21 21 22 19 15 16 19 22 20 18 18 19 20 20 18 21 21 19 19 19 19 21 20
34 33 30 29 29 27 26 27 25 23 24 26 28 30 30 31 33 33 30 25 23 28 30 26 31 36 33 31 30 32 39 39 40 45 45 43 43 43 41 40 37 35 34 30 26 24 20 24 26 24 25 25 20 16 14 15 21 23 20 18 20 20 17 15 17 20 21 19 15 13 17 21 23 22 17 14 14 20 22 20 23 24 21 20 20 19 21 21
34 33 30 29 28 27 27 26 25 25 25 26 28 30 31 33 35 32 27 23 20 23 23 21 29 33 31 32 31 31 36 36 39 45 44 42 43 41 40 38 35 34 33 30 27 26 22 26 32 27 25 25 21 19 22 26 30 31 23 19 20 19 19 19 16 16 18 16 14 10 16 19 20 21 16 10 10 16 23 24 25 25 21 18 18 18 20 23
34 33 31 29 28 28 28 26 26 26 26 28 29 31 33 35 35 29 25 24 16 10 12 15 23 28 30 31 31 32 34 33 37 42 41 42 43 42 40 40 38 37 32 27 29 29 27 31 34 26 25 28 28 26 28 29 32 34 26 18 17 19 19 17 13 13 14 15 14 10 16 19 16 19 18 13 14 17 21 21 17 19 20 17 19 23 23 24
35 33 31 29 28 28 28 27 27 27 27 29 30 32 35 34 32 27 26 28 19 9 11 15 17 24 28 28 30 33 31 28 34 41 41 41 43 42 42 41 38 36 34 27 28 30 27 28 28 23 27 31 29 27 24 26 26 27 23 22 18 19 17 17 16 15 12 13 15 14 18 21 16 19 22 21 23 21 20 19 16 21 27 25 26 29 27 26
35 34 31 29 29 28 28 27 28 29 29 30 32 34 34 31 28 26 24 25 22 16 17 17 18 21 24 26 29 31 29 26 29 38 39 40 42 41 41 41 37 36 36 29 27 28 22 22 25 23 28 32 27 27 22 25 23 21 20 20 22 19 17 18 17 17 15 15 18 16 15 18 17 17 17 20 23 21 21 24 25 29 33 31 29 28 27 26
35 34 31 30 29 29 29 28 29 29 30 32 34 34 31 27 26 25 22 20 20 23 20 18 22 24 22 25 28 29 29 28 28 34 34 37 42 41 40 40 36 38 38 30 25 25 18 17 24 25 22 25 24 26 23 22 23 21 19 13 19 21 18 18 19 20 18 15 17 16 13 16 19 18 15 17 22 18 18 22 26 31 34 32 29 28 27 25
36 34 32 31 30 29 29 29 30 30 31 34 34 32 29 26 25 26 26 20 17 23 22 17 24 25 22 25 27 28 30 29 29 30 30 33 39 39 39 40 37 39 40 31 24 22 17 16 23 30 23 20 22 25 27 23 26 26 15 11 13 17 19 23 26 25 20 15 15 15 15 17 17 18 19 21 23 20 18 18 18 22 27 28 28 27 28 25
36 34 33 33 30 29 31 31 30 31 32 35 33 30 27 24 23 27 31 24 17 26 28 21 22 24 23 26 26 26 31 32 29 29 29 30 35 35 37 38 35 38 37 32 28 23 20 18 22 31 27 18 22 26 28 27 28 30 23 16 17 19 23 26 25 22 19 14 13 11 12 14 12 14 19 21 23 22 17 14 15 17 21 25 26 24 25 25
35 35 34 33 30 30 31 32 31 32 33 32 30 27 25 23 23 27 33 26 18 28 34 27 24 22 21 25 26 24 30 33 29 28 30 30 31 32 33 34 33 36 36 35 33 26 22 21 22 28 28 22 25 27 25 27 27 28 29 22 15 16 19 20 18 16 17 16 14 11 9 14 17 18 20 22 25 27 21 18 23 26 21 21 26 24 23 25
35 35 35 33 30 31 32 33 33 32 31 29 28 27 25 25 27 29 33 26 18 26 34 29 25 23 21 25 28 26 28 32 30 29 30 29 29 29 30 32 31 32 34 39 39 30 22 22 23 26 28 26 27 28 23 25 24 24 27 25 19 16 18 19 17 17 17 16 15 12 10 17 23 22 24 27 27 24 22 24 28 28 21 18 22 24 22 24
34 36 37 34 32 32 32 33 33 31 30 28 27 26 26 27 29 33 34 27 19 23 33 32 27 27 28 30 30 29 28 32 32 31 30 28 28 27 27 31 32 30 31 38 38 29 21 22 24 27 27 22 25 27 24 25 27 25 27 26 23 21 21 21 18 18 18 13 13 13 14 20 27 25 27 31 29 25 27 31 31 32 32 24 20 21 21 22
36 37 38 34 32 32 32 33 32 31 29 26 25 26 28 29 31 37 36 27 20 20 28 34 33 32 34 34 32 29 30 32 32 30 29 27 28 26 24 27 31 29 29 34 34 26 25 25 22 26 26 18 22 27 25 25 29 29 29 29 25 21 22 21 19 20 19 15 16 18 17 22 30 30 30 31 29 27 31 35 33 33 34 27 20 21 20 20
36 37 38 33 30 32 32 32 31 30 28 25 26 27 29 30 32 36 37 31 26 22 23 30 35 38 36 36 37 34 31 32 31 28 29 28 28 26 24 25 29 30 28 32 34 31 31 31 26 28 28 22 25 29 24 24 29 30 29 29 27 20 20 21 22 25 22 19 21 20 18 24 31 32 30 29 27 27 29 32 32 31 30 25 24 24 22 23
36 37 38 34 32 33 33 31 30 29 27 26 27 26 28 30 31 35 40 38 34 29 23 23 31 40 38 35 41 42 36 34 31 28 28 29 27 27 27 27 28 33 32 32 33 34 34 33 30 30 31 28 28 29 24 23 29 28 27 28 27 23 22 22 22 26 26 22 23 21 20 27 31 30 32 32 31 31 30 31 32 32 29 22 21 23 25 27
36 37 37 34 33 35 34 31 30 31 30 30 29 27 27 28 27 33 41 42 38 33 27 20 24 37 41 39 44 45 39 40 35 26 27 30 28 27 30 29 27 32 38 37 36 35 34 35 34 32 33 30 26 23 20 21 26 28 25 30 32 26 25 26 26 28 28 27 27 25 23 27 29 30 32 32 32 31 27 27 29 31 30 26 24 24 24 27
37 39 38 35 35 37 35 32 31 32 32 31 30 30 30 27 25 33 40 42 40 36 31 24 20 30 36 36 45 49 41 42 42 26 23 28 29 28 30 31 30 34 41 43 39 36 35 35 37 35 33 32 29 23 20 19 25 28 26 26 31 31 28 28 29 29 29 30 31 29 27 27 28 30 31 28 28 26 22 23 24 22 25 29 29 28 26 26
39 42 40 37 37 38 37 34 32 33 33 32 30 31 32 30 30 34 34 35 40 41 35 26 21 31 32 27 39 51 43 41 43 28 20 27 30 31 33 36 35 36 40 42 36 35 39 35 29 28 31 32 33 31 28 24 23 27 27 24 26 30 29 30 30 29 30 33 33 30 30 29 29 31 29 24 24 23 22 26 25 20 22 27 29 30 31 30
40 41 40 37 36 36 36 35 36 36 35 35 34 33 32 32 34 34 30 28 34 40 40 31 25 35 36 25 35 51 47 46 47 36 31 35 36 37 40 40 38 34 37 42 34 30 38 37 28 28 33 33 29 29 33 29 24 26 28 25 24 26 27 30 31 30 31 33 33 32 33 34 34 33 31 28 29 30 29 30 27 23 24 28 28 28 31 35
40 40 37 37 38 34 33 35 37 35 34 35 38 36 33 31 31 30 29 30 31 35 42 38 31 37 38 28 32 45 49 52 52 44 42 43 39 40 41 41 41 39 38 41 36 29 34 40 35 31 32 29 24 25 31 34 30 28 28 27 25 25 28 31 30 29 29 30 31 32 35 39 38 35 35 36 37 38 36 32 26 24 26 28 28 29 30 34
41 40 36 38 40 37 35 37 38 36 36 38 40 38 34 30 28 27 28 31 33 34 39 38 35 39 39 30 31 40 48 53 52 48 48 47 40 38 37 38 42 42 38 38 38 34 34 40 42 35 30 30 31 31 32 31 30 30 30 29 27 28 31 31 30 29 29 30 33 36 39 40 37 34 36 36 37 39 37 33 30 29 30 30 29 30 32 33
40 40 37 36 40 40 37 38 39 38 37 37 37 36 33 30 30 31 33 35 36 36 38 39 41 44 43 39 39 42 48 52 50 48 48 49 44 37 35 36 36 36 36 38 39 39 35 35 39 38 33 33 35 33 28 29 33 35 32 28 30 32 30 29 28 28 30 33 36 39 41 40 38 37 38 36 36 38 36 32 31 30 31 32 32 33 35 34
Wind_Direction
238 235 233 230 227 225 224 223 224 224 225 225 225 224 222 222 221 221 217 213 215 217 221 225 267 357 7 10 22 23 32 38 50 83 130 143 151 151 150 145 138 139 140 148 153 155 158 158 155 141 125 118 109 96 87 77 83 83 81 68 23 80 268 266 161 260 257 135 147 148 139 133 132 134 137 132 130 127 125 123 118 117 121 112 96 92 88 86
243 239 237 234 230 228 225 224 223 223 225 225 225 225 225 224 222 222 218 214 214 214 216 215 226 278 351 359 13 14 25 31 43 64 117 140 152 148 152 149 142 142 142 149 150 155 158 157 160 146 129 128 116 96 84 70 76 83 90 95 67 106 244 230 182 274 231 189 178 170 173 161 176 155 151 147 137 134 133 127 121 127 130 114 98 95 91 88
249 244 240 237 235 231 228 225 223 223 224 224 225 224 225 226 224 223 221 218 215 215 214 211 216 220 298 342 357 6 18 24 37 47 94 132 152 148 155 152 149 147 147 153 150 157 158 156 158 150 146 128 119 106 73 68 76 57 64 118 194 115 247 176 172 240 206 219 209 168 200 199 215 205 189 165 144 143 141 137 132 137 126 109 101 99 95 91
252 250 245 241 238 235 232 228 225 223 223 224 225 223 223 225 226 224 223 221 218 216 214 211 211 210 232 301 333 349 6 19 31 36 79 122 146 146 156 156 154 149 151 155 151 155 153 154 147 148 157 104 90 86 86 75 85 71 89 168 222 134 208 187 179 235 216 215 209 177 220 214 225 227 208 168 150 153 149 149 144 142 123 111 106 101 99 93
251 252 251 247 241 238 235 232 229 225 223 224 224 224 222 224 226 225 224 223 222 219 215 212 209 209 218 244 289 321 350 15 24 27 65 113 139 147 156 157 157 152 154 154 151 150 146 157 132 120 130 105 95 59 97 200 104 72 213 186 205 167 185 189 184 233 230 216 222 217 224 221 234 231 221 211 172 152 152 163 153 149 131 116 111 107 108 103
251 250 251 251 248 242 238 235 233 229 226 224 224 224 221 222 225 224 223 223 224 222 218 213 209 209 213 224 247 282 319 359 16 23 49 100 132 148 155 157 160 155 157 152 151 152 145 160 130 103 91 101 125 84 81 235 122 121 260 224 205 192 187 200 206 222 220 222 226 235 242 242 253 253 243 245 193 142 150 167 159 160 137 120 121 120 119 116
253 251 249 250 250 248 243 237 235 232 229 226 225 224 222 222 223 223 222 222 224 223 222 218 211 208 210 218 230 254 283 312 354 20 41 92 125 148 154 157 162 158 159 154 152 157 149 158 141 104 89 83 144 140 151 247 124 182 253 240 214 208 210 218 206 194 191 206 220 265 268 248 259 271 260 234 182 140 152 162 156 159 135 123 126 127 131 127
256 253 250 249 248 249 248 243 237 234 232 230 227 225 223 222 222 223 221 220 222 223 224 221 215 210 209 216 223 238 257 270 316 9 30 85 125 148 156 160 165 162 161 158 156 158 155 154 139 97 93 103 127 159 230 230 287 248 207 208 212 193 209 187 172 179 190 199 233 277 284 266 260 271 255 201 168 142 143 141 137 144 128 124 121 119 134 134
258 255 252 250 248 247 247 247 243 237 234 232 230 228 225 223 222 223 221 219 220 222 224 223 219 213 210 213 219 232 243 253 277 339 11 72 131 150 159 165 166 169 165 165 163 156 156 151 129 98 105 136 178 212 235 186 215 252 225 203 187 157 173 165 161 159 184 171 315 304 262 246 235 232 236 182 162 146 139 126 127 137 117 112 106 98 117 113
265 257 253 251 249 247 246 246 246 243 238 233 231 230 228 225 223 223 221 219 219 221 223 223 222 216 212 211 216 227 232 240 254 287 346 59 138 152 162 170 169 175 171 167 165 158 160 138 106 108 124 133 220 218 208 156 226 244 227 206 172 151 148 152 151 134 168 149 93 298 209 207 193 165 199 186 156 142 141 131 136 136 111 105 101 97 84 13
278 264 256 252 249 248 246 245 244 244 242 237 233 231 230 228 225 223 222 219 218 219 222 223 223 219 214 212 214 223 228 235 242 255 307 10 145 161 164 173 175 176 174 172 169 173 174 136 110 132 143 103 145 188 189 185 233 230 203 208 159 126 137 151 151 138 158 127 94 277 205 204 210 165 197 241 164 146 148 131 125 120 113 113 109 112 111 3
291 277 263 254 250 248 247 246 243 242 242 241 237 233 231 230 227 225 223 219 218 219 221 222 223 220 215 214 211 215 222 223 228 235 263 291 166 176 170 173 180 178 176 176 175 188 195 155 139 152 146 102 123 199 218 186 222 221 200 196 148 141 158 172 156 154 172 15 329 319 212 189 212 281 251 249 209 150 134 114 103 104 108 106 102 109 107 112
295 289 275 260 252 249 247 246 245 243 241 241 239 236 233 231 229 228 225 220 218 218 220 220 222 221 217 215 210 214 221 216 218 224 235 262 214 184 180 176 180 180 180 180 180 185 202 182 151 149 153 132 135 203 223 206 213 211 190 176 154 152 167 177 154 173 225 305 325 299 243 221 244 255 252 258 272 107 127 146 132 104 92 82 88 100 102 112
294 292 286 271 257 250 247 245 245 244 242 239 239 238 235 233 230 229 227 222 219 219 219 219 220 220 219 214 209 214 220 218 219 218 222 239 227 193 189 184 180 183 186 185 181 173 188 203 170 153 147 134 162 214 219 218 207 187 176 171 154 163 175 154 177 200 215 232 296 272 248 296 268 248 258 264 281 303 163 176 144 109 100 87 80 86 93 96
291 291 290 283 267 253 247 245 244 243 243 241 238 236 235 235 233 230 228 224 220 219 219 218 218 218 219 213 210 216 216 215 217 217 219 222 222 205 191 188 182 185 186 183 180 174 186 197 188 170 138 128 184 233 231 217 192 181 182 169 157 180 194 186 230 242 236 234 265 269 266 292 299 265 258 256 269 280 235 213 125 104 107 99 84 83 90 89
288 289 289 287 279 262 249 245 243 243 243 242 240 236 233 234 234 232 229 225 221 220 218 217 217 217 217 212 214 220 216 213 213 213 217 218 219 210 196 191 183 186 186 184 188 184 186 178 178 185 151 142 162 178 216 220 187 198 195 187 187 187 209 234 254 260 261 276 292 282 279 281 295 293 267 258 265 268 244 231 202 141 130 109 90 87 80 71
285 287 287 287 284 274 257 246 243 242 242 242 241 239 234 231 233 233 231 227 222 220 219 217 216 216 214 211 214 217 213 213 214 210 214 217 219 214 206 197 183 187 188 188 196 190 185 176 183 191 169 165 151 146 206 218 193 218 203 195 205 191 211 236 254 255 236 256 270 267 275 274 298 308 286 276 273 275 282 275 243 189 165 134 90 54 46 42
283 284 285 286 285 280 267 252 243 241 242 241 241 241 237 231 229 231 231 228 223 220 220 217 215 215 214 213 215 214 210 212 213 210 212 215 216 214 208 197 186 189 187 185 191 190 192 185 187 195 179 176 160 154 203 206 192 230 211 197 211 196 209 214 229 249 229 229 241 237 251 264 290 302 287 286 283 286 293 287 295 290 226 186 102 66 38 28
282 281 281 283 284 283 275 260 247 241 241 241 240 241 240 234 228 228 230 229 224 220 220 218 215 215 216 217 217 217 213 209 209 209 211 212 214 212 208 200 189 190 189 187 187 189 198 195 191 198 184 183 177 164 183 202 212 240 213 226 254 241 225 211 208 235 235 225 236 245 253 259 278 293 284 285 281 280 281 280 303 321 279 272 296 73 50 34
280 279 279 279 281 282 279 267 253 243 240 240 240 240 240 237 232 227 226 227 225 221 220 218 216 215 215 216 216 217 213 207 206 207 209 210 212 212 210 207 195 193 193 189 189 192 199 201 201 202 185 189 187 165 170 194 220 256 242 226 246 241 237 243 227 225 230 220 220 246 265 267 274 281 277 283 283 280 277 275 286 293 279 280 280 355 56 51
278 278 277 277 278 280 280 273 259 246 241 240 239 240 240 238 236 230 223 224 224 222 221 219 217 215 214 214 214 214 211 208 207 205 207 209 210 212 211 209 203 198 194 189 191 196 203 204 202 201 188 191 180 156 168 189 196 230 252 223 224 228 245 265 258 241 240 230 219 235 261 273 275 273 273 277 277 279 283 280 278 275 272 266 264 284 9 46
276 277 276 275 275 276 278 276 265 251 242 240 240 240 240 239 238 234 226 223 223 221 220 219 218 218 217 216 216 214 210 208 208 205 206 209 210 211 211 210 208 200 194 194 197 200 205 201 198 199 188 190 181 161 172 204 201 213 237 239 219 223 243 243 246 253 249 243 251 254 258 266 270 268 270 273 271 274 278 276 272 273 275 272 270 278 281 264
274 274 274 274 274 274 275 275 270 256 244 241 240 239 240 239 239 236 230 225 223 219 218 218 218 219 218 216 217 215 211 210 208 204 206 209 210 210 210 209 205 201 200 201 203 204 205 199 196 198 187 187 201 189 176 186 216 215 209 225 210 204 226 231 244 257 254 258 266 266 268 260 258 264 266 264 261 265 272 272 268 270 274 275 274 271 269 272
272 272 273 273 273 272 272 273 273 261 247 242 240 239 240 239 239 238 232 228 225 220 218 217 218 219 218 218 216 213 213 213 208 205 205 206 209 210 209 208 204 203 205 204 205 202 200 201 196 198 199 187 201 230 193 176 214 219 190 185 212 217 226 237 254 261 256 252 224 246 272 266 250 256 262 260 258 262 265 266 265 266 268 268 267 265 265 272
269 270 271 271 271 271 270 271 273 264 250 243 240 240 240 239 239 238 234 231 228 222 218 216 218 219 219 219 216 211 213 214 210 207 204 203 210 210 208 208 204 204 206 203 205 199 194 203 197 196 205 188 180 222 229 192 210 228 186 166 186 222 226 227 248 253 250 257 234 236 262 269 266 261 260 262 264 266 260 256 261 264 263 261 262 262 261 264
267 268 268 269 269 269 269 269 270 266 254 244 241 240 240 240 240 238 235 232 229 225 219 216 216 218 219 220 216 213 213 212 211 209 205 203 208 209 207 209 205 205 206 202 203 198 196 215 211 198 198 191 181 194 223 215 199 217 207 169 171 186 212 226 243 248 249 257 257 251 249 260 272 274 274 275 270 264 257 252 256 259 259 258 259 261 259 260
266 265 266 268 266 266 267 266 266 266 257 246 241 240 241 242 240 237 236 232 229 228 222 216 215 215 218 220 216 214 215 213 211 210 207 205 206 206 206 208 207 207 204 200 206 200 197 215 222 208 190 195 207 201 211 212 185 184 223 212 183 173 191 230 241 248 249 246 248 256 255 259 274 282 280 277 271 262 258 257 259 261 263 264 264 263 263 264
265 264 264 266 265 263 264 264 263 263 259 248 241 240 240 241 240 237 235 231 229 229 224 218 215 214 216 217 213 213 214 214 213 211 208 207 207 205 207 207 206 209 206 201 207 206 200 206 222 219 186 190 222 214 206 203 177 174 204 223 203 181 194 220 214 228 245 246 246 251 256 255 265 274 268 264 265 262 259 258 261 264 267 271 272 266 263 265
265 263 262 264 264 261 260 261 260 261 258 248 240 238 239 239 238 236 233 226 224 229 227 220 215 215 219 218 212 211 212 211 213 212 209 210 209 204 207 209 204 207 209 205 204 207 207 200 218 232 199 194 217 208 198 197 178 186 199 194 206 215 227 214 199 213 231 237 244 240 246 246 245 259 266 265 266 264 262 263 264 263 266 271 274 271 266 266
265 262 260 262 263 260 256 256 257 260 256 246 239 238 238 237 235 233 231 226 221 229 230 221 216 217 220 219 213 211 212 210 212 212 208 210 211 206 205 206 203 203 207 210 203 200 212 204 206 227 212 203 214 202 199 195 168 193 212 174 178 231 245 217 206 220 230 236 243 235 241 253 254 264 276 278 281 274 260 262 265 258 259 265 266 271 272 269
265 262 259 260 262 259 253 252 254 256 251 242 238 237 235 236 234 229 229 225 217 227 231 221 219 221 219 216 211 211 212 210 211 212 208 209 211 208 206 204 201 200 200 208 206 192 209 221 212 218 212 203 209 197 190 191 173 192 208 184 185 216 233 223 215 228 238 242 248 241 241 254 263 269 282 296 305 292 268 268 274 261 255 261 257 264 272 271
263 262 259 258 260 258 251 248 250 250 245 238 235 236 234 234 232 227 226 219 213 228 233 225 224 224 221 217 211 211 213 211 213 214 210 210 212 209 209 209 206 205 203 204 202 183 196 234 232 220 208 196 197 194 189 203 207 206 200 196 204 214 227 226 221 233 240 242 249 246 239 248 265 272 279 289 291 285 280 286 288 276 267 265 258 256 267 272
259 260 259 256 258 257 249 245 245 245 242 235 234 234 232 232 230 226 221 211 213 231 236 239 237 229 225 222 215 212 213 211 215 217 213 211 214 213 211 212 209 208 208 202 191 175 182 226 237 226 207 191 188 204 205 201 211 215 200 190 200 209 222 225 225 236 239 249 267 259 238 244 261 269 273 278 270 273 276 282 291 286 271 264 261 256 260 270
256 258 258 255 257 255 248 242 240 240 239 234 234 233 231 232 228 223 212 200 199 216 220 238 247 238 230 225 220 217 213 212 218 220 217 214 214 214 211 211 210 206 203 200 194 185 188 213 228 222 203 195 191 199 213 209 210 220 207 183 199 214 220 225 235 249 248 258 274 271 253 248 245 248 249 240 240 250 257 264 283 281 266 267 278 273 268 269
253 255 256 254 255 253 247 241 236 237 236 233 233 233 232 231 226 219 208 192 176 176 211 220 231 239 235 222 221 223 211 209 223 222 217 217 215 215 213 211 213 206 195 194 199 199 204 216 227 218 199 208 201 180 203 220 215 229 213 178 201 233 238 235 233 241 245 252 253 238 241 247 237 238 245 240 234 240 248 244 244 258 265 273 281 280 277 274
250 251 253 252 253 251 244 239 235 235 234 233 234 233 233 231 223 216 206 192 179 190 223 226 213 226 235 219 215 223 210 198 222 228 219 217 216 215 216 212 211 208 195 192 201 202 209 225 237 227 202 216 213 171 191 224 207 228 235 187 191 220 237 245 238 237 240 245 248 233 228 250 258 257 263 263 252 250 254 244 236 253 268 275 276 276 274 277
247 248 250 250 252 248 242 238 235 235 233 234 235 234 234 230 221 210 195 188 189 192 207 227 218 212 222 220 211 214 211 196 212 232 225 219 218 214 217 215 208 208 199 192 201 203 201 216 241 249 223 225 223 179 193 226 192 205 249 221 194 202 217 237 237 239 248 250 251 245 235 251 271 277 269 264 261 262 269 256 239 244 258 266 270 272 270 273
246 245 246 247 249 246 240 237 235 235 234 234 235 234 233 226 218 207 184 178 203 199 191 212 226 216 210 217 214 208 211 205 209 228 226 219 221 215 215 216 208 207 204 188 191 215 220 210 235 254 247 245 239 193 189 213 188 183 222 245 222 213 219 232 230 227 234 241 242 239 238 243 260 269 259 257 266 275 283 275 252 245 254 260 263 268 272 271
244 244 244 245 247 244 239 235 235 235 234 235 234 233 234 225 216 205 185 180 213 211 197 196 215 222 211 208 214 209 211 213 212 224 226 218 223 218 214 217 208 205 203 180 177 214 227 202 217 241 240 241 243 213 195 206 196 181 192 228 239 220 218 234 240 229 219 231 246 242 245 252 254 261 266 265 262 259 258 264 273 278 275 269 264 263 269 271
243 244 243 242 244 243 239 235 235 236 235 236 235 232 232 224 213 205 192 188 208 209 200 188 188 209 212 202 209 211 214 219 214 221 230 222 222 222 216 216 209 203 197 178 178 203 207 187 196 223 225 216 225 227 211 206 204 192 192 206 224 216 217 237 248 233 214 214 233 239 244 252 245 245 257 259 255 257 258 260 275 287 285 272 267 264 262 267
241 244 243 239 240 241 237 235 235 237 237 237 235 231 228 219 206 200 195 192 209 210 196 183 181 199 207 199 204 208 218 228 218 216 232 227 219 222 219 214 208 203 199 188 184 186 191 198 202 213 220 211 217 236 229 205 206 215 208 196 193 205 220 229 233 237 229 209 210 222 232 249 251 245 248 254 258 265 271 270 276 286 288 276 271 270 263 263
241 243 241 234 236 239 236 235 234 236 237 234 232 230 226 221 208 198 194 195 214 215 198 195 199 198 193 193 198 200 211 228 223 213 224 229 220 218 221 216 205 201 205 198 185 172 183 215 221 223 230 215 210 232 235 206 198 216 228 213 199 206 214 215 222 239 242 221 215 227 229 245 254 248 247 254 259 264 268 272 278 283 284 280 269 269 270 266
242 243 240 232 235 239 237 236 234 235 236 231 229 227 222 221 213 201 197 200 216 221 209 208 206 192 184 183 187 194 206 223 228 215 212 225 225 213 217 220 205 199 207 201 189 183 194 205 209 218 228 216 206 223 234 220 203 206 224 229 225 220 215 215 224 236 240 232 232 234 230 243 255 253 250 251 256 261 263 264 268 271 277 279 271 271 275 275
243 244 240 231 230 237 237 235 234 234 234 229 227 226 221 220 216 207 203 204 212 219 221 216 203 192 188 182 178 185 199 216 228 222 208 216 226 213 212 222 203 195 210 208 199 202 204 200 194 202 213 211 208 213 220 228 221 207 208 229 247 242 219 218 228 235 235 228 230 233 229 239 252 258 259 257 255 258 260 266 271 271 272 272 268 272 278 279
242 244 241 229 224 231 234 232 232 231 229 227 224 224 222 218 217 214 211 209 205 202 210 221 208 196 194 189 181 181 188 202 220 233 220 212 220 215 212 219 203 192 206 216 211 211 212 208 199 197 204 208 210 211 208 218 232 225 205 211 235 244 233 228 229 233 235 229 227 227 223 233 244 250 254 257 258 259 263 267 271 273 275 271 261 265 275 279
241 243 239 228 221 227 230 228 228 227 224 222 219 218 216 213 218 225 221 215 209 201 195 204 212 203 198 196 188 182 186 190 196 221 228 211 211 215 211 216 211 198 202 211 212 210 215 220 216 208 207 206 212 223 216 205 223 239 230 207 206 219 233 236 233 234 243 249 247 242 239 245 251 250 250 254 261 266 268 263 256 259 269 275 271 269 272 276
240 242 237 225 217 220 224 224 225 226 225 224 222 217 212 208 218 231 228 218 215 213 196 183 202 211 208 206 194 185 186 186 180 194 224 211 205 214 214 213 216 210 204 207 211 206 207 217 221 221 218 207 203 220 232 216 209 224 235 222 209 208 214 224 231 236 242 251 256 258 260 264 266 263 260 261 263 263 264 264 258 251 256 266 274 278 275 273
239 243 240 227 217 215 216 217 220 223 224 225 225 223 219 213 214 224 230 223 218 216 205 194 205 209 209 215 200 188 187 186 179 183 209 206 202 212 215 209 214 218 207 202 211 215 210 210 214 224 231 220 204 202 210 216 217 220 226 230 227 222 216 216 223 231 238 243 248 253 256 260 264 266 265 264 263 258 254 261 269 270 266 269 276 283 285 281
238 244 244 231 221 221 219 216 217 220 220 222 224 225 223 220 218 220 225 224 220 217 213 213 214 202 200 212 204 194 192 188 182 186 195 195 200 211 211 204 208 221 212 198 203 218 214 210 213 225 231 228 220 210 204 207 223 234 234 235 236 234 233 230 227 227 235 243 247 250 253 254 255 258 260 262 262 260 257 262 271 279 277 277 282 287 290 290
237 241 244 231 221 222 223 220 220 220 219 222 224 223 220 218 219 220 221 222 220 217 215 217 215 202 201 214 214 205 201 193 188 193 193 188 198 211 210 205 208 216 216 205 207 221 219 212 212 215 218 221 229 232 224 216 215 223 232 238 241 239 240 243 243 239 239 243 246 249 254 257 258 259 258 257 258 258 258 262 269 273 274 279 285 286 288 291
237 240 243 232 220 218 218 217 220 220 219 221 223 223 220 219 217 214 215 221 221 216 215 217 217 207 202 213 221 215 210 202 197 201 197 188 198 211 208 208 211 214 219 219 218 225 226 220 217 216 218 221 220 223 231 231 225 225 229 231 236 239 238 239 244 245 245 246 248 248 249 252 258 263 260 255 255 256 258 262 265 266 270 275 279 282 285 289
237 238 242 234 220 217 217 215 217 219 220 224 227 226 224 224 222 216 214 220 221 218 217 217 216 210 203 209 218 217 214 209 204 206 202 192 196 209 209 207 205 204 213 222 222 221 222 225 224 222 227 232 224 220 231 240 236 234 232 230 234 239 239 239 241 245 247 250 250 251 251 248 246 250 254 255 256 258 262 267 268 266 269 273 278 284 288 290